Temperature
16 16 16 15 15 15 15 15 14 14 14 14 14 14 14 14 14 14 14 14 14 13 13 13 13 13 13 13 13 13 13 13 13 12 12 12 12 12 12 12 11 11 11
16 16 15 15 15 15 15 14 14 14 14 14 14 14 14 14 13 13 13 13 13 13 13 13 13 13 13 13 13 13 13 12 12 12 12 12 12 11 11 11 11 11 11
16 15 15 15 15 15 15 14 14 14 14 14 14 14 14 13 13 13 13 13 13 13 13 13 13 13 13 13 12 12 12 12 12 12 12 12 11 11 11 11 11 11 11
15 15 15 15 15 15 14 14 14 14 14 14 14 14 14 13 13 13 13 13 13 13 13 13 13 12 12 12 12 12 12 12 12 12 12 11 11 11 11 11 11 10 10
15 15 15 15 14 14 14 14 14 14 14 14 14 14 14 13 13 13 13 13 13 13 13 13 12 12 12 12 12 12 12 12 12 12 11 11 11 11 11 10 10 10 10
15 15 15 15 14 14 14 14 14 14 14 14 14 14 13 13 13 13 13 13 13 13 13 12 12 12 12 12 12 12 12 12 12 11 11 11 11 11 10 10 10 10 10
15 15 15 15 14 14 14 14 14 14 14 13 13 13 13 13 13 13 13 13 13 12 12 12 12 12 12 12 12 12 12 11 11 11 11 11 11 11 10 10 10 10 10
15 14 14 14 14 14 14 14 13 13 13 13 13 13 13 13 13 13 13 13 12 12 12 12 12 12 12 12 11 12 12 11 11 11 11 11 10 10 10 10 9 9 9
14 14 14 14 14 14 13 13 13 13 13 13 13 13 13 13 13 12 12 12 12 12 12 12 12 12 12 11 11 11 11 11 11 11 11 10 10 10 10 9 9 9 9
14 14 14 14 13 13 13 13 13 13 13 13 13 13 13 13 13 12 12 12 12 12 12 12 12 12 12 11 11 11 11 11 11 11 11 10 10 10 9 9 9 9 8
14 14 13 13 13 13 13 13 13 12 13 13 13 13 12 12 12 12 12 12 12 12 12 12 11 11 11 11 11 11 11 10 10 10 10 10 10 10 9 9 9 8 8
13 13 13 13 13 12 12 12 12 12 12 12 12 12 12 12 12 12 12 11 11 11 11 11 11 11 11 10 10 10 10 10 10 10 10 10 10 9 9 9 8 8 8
13 13 13 13 12 12 12 12 12 12 12 12 12 12 12 12 11 11 11 11 11 11 11 11 10 10 10 10 10 10 10 10 10 9 9 9 9 9 9 8 8 8 8
13 13 12 12 12 12 12 12 12 12 11 11 11 11 11 11 11 11 11 11 11 10 10 10 10 10 10 10 9 9 9 9 9 9 9 9 9 9 8 8 8 8 8
12 12 12 12 12 12 12 11 11 11 11 11 11 10 10 10 10 10 10 10 10 10 10 10 10 9 9 9 9 9 9 9 9 9 9 8 8 8 8 8 8 8 7
12 12 12 11 11 11 11 11 11 10 10 10 10 10 10 10 10 10 10 10 9 9 9 9 9 9 9 9 9 9 9 8 8 8 8 8 8 8 8 7 7 7 7
11 11 11 11 11 11 10 10 10 10 10 10 9 9 9 9 9 9 9 9 9 9 8 9 9 8 8 8 8 8 8 8 8 8 8 7 7 7 7 7 7 7 7
11 11 11 10 10 10 10 10 9 9 9 9 9 9 9 8 8 9 8 8 8 8 8 8 8 8 8 8 8 8 8 7 7 7 7 7 7 7 7 7 6 6 6
11 10 10 10 10 10 10 9 9 9 9 9 8 8 8 8 8 8 8 8 8 8 8 8 8 8 7 7 7 7 7 7 7 7 7 6 6 6 6 6 6 6 5
10 10 10 10 9 9 9 9 9 9 8 8 8 8 8 8 8 8 8 7 7 7 7 7 7 7 7 7 7 7 7 7 6 6 6 6 6 6 6 6 5 5 5
10 10 9 9 9 9 9 8 8 8 8 8 8 7 7 7 7 7 7 7 7 7 7 7 7 6 6 6 6 6 6 6 6 6 6 6 5 5 5 5 5 5 4
9 9 9 9 9 8 8 8 8 7 7 7 7 7 7 7 7 6 6 6 6 6 6 6 6 6 6 6 6 6 5 5 5 5 5 5 5 5 5 4 4 4 4
9 9 8 8 8 8 8 7 7 7 7 7 7 7 6 6 6 6 6 6 6 6 5 5 5 5 5 5 5 5 5 5 5 5 4 4 4 4 4 4 4 4 3
8 8 8 8 8 8 7 7 7 7 6 6 6 6 6 6 6 6 6 6 5 5 5 5 5 5 5 4 4 4 4 4 4 4 4 4 4 3 3 3 3 3 3
7 7 7 7 7 7 7 6 6 6 6 6 6 6 6 5 5 5 5 5 5 5 5 5 4 4 4 4 4 4 4 4 3 3 3 3 3 3 3 3 3 3 2
7 7 7 6 6 6 6 6 6 5 5 5 5 5 5 5 5 5 5 5 5 4 4 4 4 4 3 3 3 3 3 3 3 3 3 3 2 2 2 2 2 2 2
Wind_Speed
5 4 4 4 4 4 4 5 5 4 4 4 4 4 3 3 2 3 2 2 2 1 1 2 1 1 2 1 1 2 2 3 3 1 0 0 1 1 1 2 2 2 2
4 4 3 3 3 3 3 4 4 4 4 4 4 4 4 3 3 3 3 3 3 2 2 2 1 1 1 1 2 2 2 2 3 2 1 0 1 1 1 1 2 2 2
3 3 3 2 2 3 3 4 4 4 4 3 4 4 4 4 4 4 4 3 3 3 3 3 2 2 2 1 2 2 1 2 2 3 1 1 0 0 0 1 0 1 2
4 3 3 3 3 3 3 4 4 4 4 4 4 4 4 4 4 4 3 3 2 2 3 3 3 3 3 3 2 2 2 3 3 3 1 0 0 1 1 0 1 1 1
4 4 4 4 3 2 2 3 3 4 5 4 4 3 3 3 4 4 4 3 3 2 2 2 3 3 4 3 3 3 3 3 3 2 2 0 0 0 1 1 1 1 2
5 5 4 3 3 2 3 3 3 3 3 3 4 4 3 3 5 6 5 4 3 3 2 2 2 2 4 4 4 5 5 5 5 4 3 3 3 3 2 2 1 1 2
4 4 4 4 3 3 3 2 2 3 3 3 3 4 3 4 5 6 6 4 4 4 3 3 2 1 2 2 3 3 4 5 7 6 5 5 5 5 4 3 2 2 3
4 4 4 4 3 3 3 3 3 2 3 3 3 4 3 3 5 6 6 4 3 3 4 4 4 3 3 3 3 2 2 3 5 5 6 7 6 6 6 5 4 2 1
4 5 4 4 3 3 3 3 3 3 3 3 3 4 3 3 4 5 6 4 3 3 3 3 4 4 5 5 4 3 2 3 3 5 6 6 7 7 6 4 2 2 1
4 4 4 4 4 4 4 3 2 2 3 3 2 3 3 3 3 4 5 3 3 3 2 3 4 4 5 5 5 5 4 4 2 1 2 2 4 5 7 6 5 3 2
3 3 3 3 4 4 3 2 2 2 2 2 2 1 2 2 3 3 4 4 4 3 3 3 3 5 5 5 5 5 6 4 2 2 2 1 1 2 3 4 5 4 4
3 3 3 3 3 3 2 2 2 2 2 2 1 1 1 2 2 2 3 4 4 4 4 3 4 5 5 5 4 4 5 4 2 2 1 2 2 3 2 3 5 6 6
3 3 3 3 2 3 3 3 2 2 2 2 2 2 2 2 2 3 3 3 4 3 3 4 4 4 3 3 4 5 4 3 3 3 3 4 3 3 2 1 1 2 2
3 3 3 3 2 2 2 2 3 3 2 2 2 2 2 1 2 2 1 2 2 3 2 3 3 3 2 3 2 3 3 3 4 4 4 3 2 1 2 2 2 1 1
3 3 3 3 3 2 2 2 3 4 4 4 4 4 3 3 4 4 2 2 2 2 1 0 1 1 1 2 2 2 2 3 3 3 3 3 2 2 2 2 2 2 2
3 3 3 3 3 3 2 1 2 3 4 5 5 4 4 4 3 3 4 4 4 3 2 2 3 3 4 4 4 3 3 4 4 4 4 4 4 4 3 2 2 3 4
4 3 3 3 3 3 3 3 2 2 2 3 4 5 4 3 3 3 3 3 3 4 2 3 4 4 4 4 4 4 4 4 4 4 4 4 4 4 3 3 3 3 4
3 3 3 3 3 3 4 4 3 3 2 2 3 4 4 4 3 3 2 2 1 2 3 4 4 4 4 4 4 4 4 3 3 4 4 4 4 4 4 4 4 5 5
3 2 3 3 3 3 3 3 3 3 3 2 1 2 3 3 3 3 2 2 3 3 4 4 4 4 4 4 5 4 4 4 4 4 5 5 5 5 5 5 5 6 5
3 4 3 2 3 3 3 3 3 3 3 3 3 3 1 0 1 2 3 3 3 4 4 5 4 4 4 4 4 4 4 5 5 5 5 5 5 5 6 6 6 5 6
3 3 3 2 3 4 4 4 4 4 4 4 4 4 4 3 4 4 4 4 5 5 5 5 4 4 5 4 4 5 6 5 5 5 5 5 5 5 5 5 6 6 5
3 3 3 3 3 3 4 4 4 4 5 5 4 4 6 4 4 4 5 5 5 5 5 4 4 4 4 5 5 5 6 6 6 6 6 6 5 6 5 5 5 5 5
3 3 3 3 3 4 4 4 4 5 5 5 5 4 4 5 5 5 6 5 5 5 4 4 5 5 5 5 6 5 6 6 7 6 6 6 6 5 5 6 6 6 6
3 3 4 3 3 3 4 4 4 5 5 5 5 5 5 6 6 6 6 5 4 4 4 4 5 6 6 5 5 6 6 7 7 7 7 7 6 6 6 6 6 7 7
3 3 3 4 3 3 4 4 4 5 5 5 5 5 5 5 5 5 4 4 4 4 4 4 4 5 6 6 6 6 7 8 8 7 6 6 7 7 6 7 7 7 7
2 3 3 3 3 3 4 4 4 4 4 4 4 4 4 4 4 4 4 3 3 4 4 4 5 5 6 6 7 7 7 7 7 7 6 5 6 6 6 6 7 7 7
Wind_Direction
198 198 194 203 199 195 199 200 198 199 193 185 179 174 176 180 169 155 169 166 165 192 181 166 187 162 149 150 141 141 145 138 161 240 200 168 171 187 188 195 192 180 192
198 186 188 199 193 194 205 206 196 195 196 191 182 177 185 190 181 171 185 186 181 190 198 170 194 162 157 156 148 148 152 147 148 163 199 187 204 200 185 185 203 199 209
178 170 175 184 189 202 210 203 192 192 194 187 179 183 191 195 193 192 187 190 194 197 193 187 200 170 181 177 158 155 160 138 128 145 182 210 264 125 26 305 251 237 231
166 166 181 196 201 206 203 192 186 181 181 186 192 196 195 194 191 186 179 182 191 200 196 192 190 181 188 182 170 168 148 127 122 127 140 196 267 326 119 245 314 315 278
170 179 203 208 201 191 189 193 186 185 189 189 188 196 195 191 197 187 181 178 177 188 200 202 199 193 189 185 177 173 156 148 147 148 161 168 249 242 236 228 239 289 296
186 192 197 191 184 190 193 198 187 189 195 192 193 190 193 212 209 191 174 170 173 177 194 219 219 208 210 202 192 183 175 170 176 178 192 202 227 218 207 201 211 269 282
187 192 191 185 177 194 196 183 196 196 190 193 196 185 194 218 205 191 182 169 176 188 193 201 223 221 191 187 195 195 206 200 190 187 194 210 211 210 191 199 209 214 238
189 199 196 182 184 188 179 183 196 190 193 195 193 190 191 212 201 193 183 170 177 195 199 196 197 213 213 187 178 189 229 239 217 202 205 213 212 202 193 196 200 211 285
199 203 196 185 183 184 191 202 202 188 196 194 189 187 193 221 214 198 179 169 185 212 217 208 199 211 222 195 174 192 232 267 240 217 217 212 207 197 177 146 151 155 267
207 198 183 178 178 182 195 202 200 190 197 189 176 189 197 217 223 201 176 166 187 216 231 232 220 217 218 200 183 186 208 237 228 210 207 211 200 196 188 179 178 182 213
195 168 159 168 173 173 177 172 171 172 166 165 167 199 207 219 222 207 185 175 190 202 219 237 240 227 220 211 198 197 209 200 189 193 207 215 211 202 206 200 191 187 202
152 147 157 164 169 166 158 162 155 154 161 175 172 233 260 250 231 227 204 196 193 196 222 230 235 229 221 212 206 205 191 170 161 174 203 221 224 229 228 212 208 211 218
147 158 168 165 166 160 160 164 161 155 168 201 203 235 262 263 259 244 218 209 208 212 231 231 229 224 221 219 213 200 186 180 177 195 221 234 232 224 204 200 226 232 253
161 177 176 173 179 176 176 177 176 182 193 207 211 234 255 267 261 261 257 238 235 239 244 242 236 231 230 224 218 214 205 200 199 214 223 234 221 202 211 206 221 232 267
175 192 192 189 186 189 195 197 198 209 208 206 214 211 211 238 250 234 204 223 231 235 213 224 245 232 222 229 233 224 214 207 215 223 219 221 223 227 236 221 215 215 228
179 197 199 197 194 191 191 224 242 229 238 231 222 212 225 236 255 235 225 226 219 188 150 206 227 228 227 224 227 232 225 222 223 223 223 221 222 224 234 230 216 219 235
192 204 200 195 196 198 198 203 243 288 281 249 234 222 224 237 237 235 227 225 212 172 185 224 231 231 233 230 227 227 231 232 224 221 226 228 227 226 227 229 227 233 242
199 208 197 201 202 204 209 211 211 215 241 273 263 246 240 239 244 244 214 139 195 204 226 231 237 241 242 238 234 233 236 235 228 229 232 232 227 225 229 232 232 234 241
199 207 205 208 206 206 207 207 207 209 216 231 256 266 254 245 241 240 188 198 225 236 241 243 245 244 245 242 239 234 231 233 233 231 231 232 231 228 233 236 236 240 240
213 216 203 204 205 205 206 206 211 216 219 224 232 243 242 213 236 241 229 237 241 247 247 246 246 246 246 243 240 237 236 236 234 237 240 237 233 230 233 235 235 236 237
210 214 210 209 214 212 211 212 216 218 223 229 237 235 212 218 231 237 238 241 242 244 247 247 247 246 243 244 243 242 241 242 239 237 240 242 237 235 237 236 236 236 240
207 211 214 218 222 220 222 222 224 226 228 232 245 243 230 230 235 240 243 245 243 245 243 242 245 246 243 241 240 240 243 244 243 241 241 238 236 236 236 235 234 237 243
209 216 227 233 225 226 228 229 230 232 235 237 242 243 236 237 239 240 243 247 249 249 246 240 241 246 253 250 244 239 243 247 244 235 235 238 236 237 238 237 233 235 240
218 221 226 230 235 230 229 234 235 237 239 241 241 242 242 241 243 245 244 245 246 248 250 248 247 248 252 257 254 252 252 257 253 236 228 231 236 239 240 240 237 235 238
224 226 226 224 229 234 236 241 246 248 247 246 247 248 249 250 251 253 251 248 246 248 249 250 253 252 252 254 258 262 264 266 264 256 239 229 232 234 237 243 245 244 239
229 226 226 226 229 235 237 241 247 252 253 253 253 254 253 252 252 256 257 250 249 249 252 254 254 251 253 256 259 262 266 269 271 265 249 236 239 239 238 243 248 248 243
Height
1538 1538 1539 1539 1539 1539 1539 1539 1540 1540 1541 1541 1542 1542 1542 1542 1543 1543 1543 1543 1543 1543 1543 1543 1543 1543 1543 1543 1543 1543 1543 1543 1543 1543 1543 1543 1543 1542 1542 1541 1541 1540 1539
1536 1536 1537 1537 1537 1537 1537 1537 1538 1538 1538 1539 1540 1540 1540 1540 1541 1541 1541 1542 1542 1542 1542 1542 1542 1542 1541 1541 1541 1541 1541 1541 1541 1540 1540 1541 1541 1540 1540 1540 1539 1539 1538
1534 1534 1535 1535 1535 1535 1535 1535 1535 1536 1536 1537 1538 1538 1538 1539 1539 1539 1540 1540 1540 1540 1540 1540 1540 1540 1540 1540 1539 1539 1539 1539 1539 1538 1538 1538 1538 1538 1538 1538 1537 1537 1536
1531 1532 1532 1532 1533 1533 1533 1533 1533 1533 1534 1535 1535 1536 1536 1537 1537 1537 1538 1538 1538 1538 1538 1538 1538 1538 1538 1537 1537 1537 1537 1537 1537 1536 1536 1536 1536 1536 1536 1535 1534 1534 1534
1529 1529 1530 1530 1531 1531 1531 1531 1531 1531 1532 1532 1533 1533 1534 1534 1535 1535 1535 1535 1535 1535 1535 1536 1535 1536 1535 1535 1535 1535 1535 1534 1534 1534 1534 1533 1533 1533 1533 1533 1532 1531 1531
1526 1526 1527 1527 1528 1528 1528 1528 1528 1529 1529 1530 1530 1530 1531 1532 1532 1532 1533 1533 1533 1533 1533 1533 1533 1533 1533 1533 1532 1532 1533 1532 1532 1531 1531 1531 1530 1530 1531 1530 1530 1529 1528
1522 1523 1523 1524 1525 1525 1525 1526 1526 1526 1526 1527 1527 1527 1528 1529 1529 1530 1530 1530 1530 1530 1530 1530 1530 1530 1530 1530 1529 1529 1529 1529 1529 1529 1528 1528 1528 1528 1528 1527 1527 1526 1525
1519 1519 1520 1521 1522 1522 1522 1523 1523 1523 1524 1524 1524 1525 1525 1526 1526 1527 1527 1527 1527 1527 1527 1527 1527 1527 1527 1527 1526 1526 1526 1526 1526 1525 1525 1525 1525 1525 1525 1525 1524 1523 1523
1515 1516 1517 1518 1519 1519 1519 1520 1520 1521 1521 1521 1521 1522 1522 1523 1523 1523 1524 1524 1524 1524 1524 1524 1524 1523 1523 1523 1523 1522 1522 1522 1522 1522 1522 1522 1522 1522 1522 1522 1521 1520 1518
1511 1512 1513 1514 1515 1516 1516 1517 1518 1518 1518 1518 1518 1519 1519 1520 1520 1521 1521 1521 1520 1520 1520 1520 1520 1520 1520 1519 1519 1519 1518 1518 1518 1518 1518 1518 1518 1518 1518 1518 1517 1517 1516
1508 1509 1510 1511 1512 1513 1513 1514 1514 1515 1515 1515 1515 1516 1516 1517 1517 1517 1517 1517 1517 1517 1516 1516 1516 1516 1516 1515 1515 1515 1515 1514 1514 1514 1514 1514 1514 1514 1514 1514 1514 1514 1513
1505 1506 1507 1508 1509 1509 1510 1511 1511 1512 1512 1512 1512 1513 1513 1513 1513 1513 1514 1514 1513 1513 1512 1512 1512 1512 1512 1511 1511 1511 1511 1511 1510 1510 1510 1509 1509 1509 1509 1510 1510 1510 1509
1502 1503 1504 1505 1506 1506 1507 1507 1508 1508 1509 1509 1509 1509 1509 1510 1510 1510 1510 1510 1509 1509 1508 1508 1508 1508 1508 1507 1507 1507 1507 1506 1506 1506 1505 1505 1505 1506 1506 1505 1505 1505 1505
1499 1500 1501 1502 1502 1503 1504 1504 1504 1505 1505 1505 1505 1505 1505 1505 1505 1506 1505 1505 1505 1505 1504 1504 1504 1504 1504 1503 1503 1503 1502 1502 1502 1502 1501 1502 1502 1501 1501 1501 1501 1500 1499
1497 1498 1498 1499 1499 1499 1500 1500 1500 1501 1501 1502 1502 1502 1502 1501 1502 1502 1502 1501 1501 1501 1500 1499 1499 1499 1499 1498 1498 1498 1498 1498 1497 1497 1497 1497 1497 1497 1497 1496 1496 1495 1494
1494 1494 1495 1495 1495 1496 1496 1496 1496 1497 1497 1498 1498 1498 1498 1498 1498 1498 1498 1498 1497 1497 1496 1495 1494 1494 1494 1494 1493 1493 1493 1493 1493 1493 1493 1492 1492 1492 1492 1491 1491 1490 1489
1490 1491 1491 1492 1492 1492 1492 1492 1492 1493 1493 1493 1493 1494 1494 1494 1494 1494 1493 1493 1493 1492 1491 1490 1490 1490 1489 1489 1489 1489 1489 1489 1488 1488 1488 1487 1487 1487 1486 1486 1485 1484 1483
1487 1487 1487 1488 1488 1488 1488 1488 1488 1488 1488 1488 1489 1489 1489 1489 1489 1489 1489 1488 1487 1487 1486 1486 1485 1485 1485 1485 1484 1484 1484 1483 1483 1483 1482 1482 1482 1481 1481 1480 1479 1479 1478
1483 1484 1484 1484 1484 1484 1484 1484 1484 1484 1484 1484 1484 1484 1484 1484 1484 1484 1484 1483 1482 1482 1481 1481 1480 1480 1480 1479 1479 1479 1478 1478 1477 1477 1476 1476 1476 1475 1474 1474 1473 1473 1472
1480 1480 1480 1480 1480 1480 1480 1480 1480 1480 1480 1480 1480 1480 1479 1479 1479 1478 1478 1478 1477 1477 1476 1476 1475 1475 1474 1474 1474 1473 1472 1472 1471 1471 1470 1470 1470 1469 1468 1468 1467 1467 1466
1476 1476 1476 1476 1476 1476 1476 1476 1476 1476 1476 1475 1475 1475 1475 1475 1474 1474 1473 1473 1472 1471 1471 1470 1470 1469 1469 1468 1468 1467 1466 1466 1465 1465 1464 1463 1463 1462 1462 1461 1461 1460 1460
1472 1471 1471 1471 1471 1471 1471 1472 1472 1471 1471 1471 1470 1470 1470 1470 1469 1469 1468 1468 1467 1467 1466 1465 1464 1463 1463 1462 1462 1461 1460 1459 1459 1458 1457 1457 1456 1455 1455 1454 1454 1453 1452
1467 1467 1467 1467 1467 1467 1467 1467 1467 1467 1466 1466 1466 1465 1465 1464 1464 1463 1463 1462 1462 1461 1460 1459 1458 1457 1457 1456 1455 1454 1454 1453 1452 1451 1451 1450 1449 1449 1448 1447 1446 1446 1445
1462 1462 1462 1462 1462 1461 1461 1461 1461 1461 1461 1461 1460 1460 1460 1459 1458 1458 1457 1456 1455 1455 1454 1453 1452 1451 1450 1449 1448 1447 1446 1446 1445 1444 1444 1443 1442 1441 1441 1440 1439 1439 1438
1458 1457 1457 1457 1457 1456 1456 1456 1456 1456 1455 1455 1455 1454 1453 1453 1452 1451 1451 1450 1449 1448 1447 1446 1445 1444 1443 1442 1441 1440 1439 1439 1438 1437 1436 1436 1435 1434 1434 1433 1432 1432 1431
1453 1453 1453 1452 1452 1452 1451 1451 1450 1450 1449 1449 1449 1448 1447 1447 1446 1445 1444 1443 1443 1442 1441 1440 1438 1437 1436 1435 1434 1433 1432 1431 1430 1429 1429 1428 1427 1427 1426 1426 1425 1425 1424